Regional Weather Roundup
Issued by NWS

Home | Current Version | Previous Version | Text Only | Print | Product List | Glossary On
Versions: 1 2 3 4 5 6 7 8 9 10 11 12 13 14 15 16 17 18 19 20 21 22 23 24 25 26 27 28 29 30 31 32 33 34 35 36 37 38 39 40 41 42 43 44 45 46 47 48 49 50
000
ASUS45 KABQ 241410
RWRNM
NEW MEXICO REGIONAL WEATHER ROUNDUP
NATIONAL WEATHER SERVICE ALBUQUERQUE NM
800 AM MDT SAT JUN 24 2017

NOTE: "FAIR" MEANS FEW OR NO CLOUDS BELOW 12,000 FEET AGL WITH NO
       SIGNIFICANT WEATHER OR OBSTRUCTIONS TO VISION.

      THIS PRODUCT IS RELEASED AS TWO VERSIONS.  ONE VERSION NEAR
      THE TOP OF THE HOUR CONTAINING PRELIMINARY DATA FROM ALBUQUERQUE
      AND OTHER STATIONS.  A FINAL VERSION WITH ADDITIONAL DATA IS
      ISSUED ABOUT 10 MINUTES AFTER THE HOUR.

NMZ501-503-504-510>518-241500-
NORTHWEST PLATEAU/NORTHCENTRAL MOUNTAINS

CITY           SKY/WX    TMP DP  RH WIND       PRES   REMARKS
FARMINGTON     FAIR      65  31  28 N3        30.21R
LOS ALAMOS     CLOUDY    60  50  68 S10G18    30.39R
SANTA FE       FAIR      66  53  63 SE21      30.34R
TAOS           CLOUDY    61  45  55 CALM        N/A
ANGEL FIRE     FAIR      52  46  81 CALM      30.45S

$$
NMZ402-403-502-505>509-241500-
WESTCENTRAL MOUNTAINS/SOUTHWEST MOUNTAINS

CITY           SKY/WX    TMP DP  RH WIND       PRES   REMARKS
GALLUP         FAIR      66  46  48 E6        30.28R
GRANTS         FAIR      69  56  63 SE14      30.32S

$$
NMZ407-409-411-412-241500-
SOUTHERN DESERTS

CITY           SKY/WX    TMP DP  RH WIND       PRES   REMARKS
DEMING         FAIR      80  56  43 E16G23    30.13R
LAS CRUCES     FAIR      81  53  38 E8        30.15R
HOLLOMAN AFB   FAIR      79  58  49 SW6       30.15R
T OR C         FAIR      77  59  53 NE12      30.17R

$$
NMZ519>523-241500-
CENTRAL VALLEYS/CENTRAL HIGHLANDS

CITY           SKY/WX    TMP DP  RH WIND       PRES   REMARKS
ALBUQUERQUE    FAIR      71  52  50 E12       30.27R
DOUBLE EAGLE   MOSUNNY   70  52  52 N9        30.30R
MORIARTY ARPT  CLOUDY    65  52  62 SE8       30.37S
CLINES CORNERS CLOUDY    56  45  66 E15       30.41R
BELEN          NOT AVBL
SOCORRO        FAIR      74  53  48 N6        30.21S

$$
NMZ524>526-539-540-241500-
SOUTHCENTRAL MOUNTAINS

CITY           SKY/WX    TMP DP  RH WIND       PRES   REMARKS
RUIDOSO        NOT AVBL

$$
NMZ527>531-241500-
NORTHEAST HIGHLANDS/NORTHEAST PLAINS

CITY           SKY/WX    TMP DP  RH WIND       PRES   REMARKS
LAS VEGAS      CLOUDY    56  45  66 SE9       30.41R
RATON          CLOUDY    57  46  66 SW9       30.37R
CLAYTON        CLOUDY    61  47  59 SE7       30.34R

$$
NMZ532>537-241500-
EASTCENTRAL PLAINS

CITY           SKY/WX    TMP DP  RH WIND       PRES   REMARKS
SANTA ROSA     CLOUDY    64  46  52 NE10      30.33R
TUCUMCARI      CLOUDY    64  47  53 E10       30.30R
CANNON AFB     CLOUDY    62  54  74 E15       30.31R
CLOVIS AIRPORT CLOUDY    61  52  72 E15       30.31R

$$
NMZ028-029-538-241500-
SOUTHEAST PLAINS

CITY           SKY/WX    TMP DP  RH WIND       PRES   REMARKS
ROSWELL        CLOUDY    71  50  47 E9        30.25R
ARTESIA        FAIR      72  52  49 NE10G17   30.24R
CARLSBAD       FAIR      72  53  51 E13       30.22R
HOBBS          PTSUNNY   64  55  72 NE18G26   30.26R


$$



USA.gov is the U.S. government's official web portal to all federal, state and local government web resources and services.